Regional Weather Roundup
Issued by NWS Goodland, KS

Home | Current Version | Previous Version | Graphics & Text | Print | Product List | Glossary On
Versions: 1 2 3 4 5 6 7 8 9 10 11 12 13 14 15 16 17 18 19 20 21 22 23 24 25 26 27 28 29 30 31 32 33 34 35 36 37 38 39 40 41 42 43 44 45 46 47 48 49 50
000
ASUS43 KGLD 290508
RWRGLD

GOODLAND FORECAST AREA HOURLY WEATHER ROUNDUP
NATIONAL WEATHER SERVICE GOODLAND KS
1000 PM MST WED JAN 28 2015

...OFFICIAL OBSERVATIONS...

CITY           SKY/WX    TMP DP  RH WIND       PRES   REMARKS
GOODLAND KS    CLEAR     40  35  83 NW14      30.21R
HILL CITY KS   CLEAR     49  32  52 NW15      30.11R
IMPERIAL NEB   CLEAR     42  33  70 NW17      30.18R
MCCOOK NEB     CLEAR     43  32  65 NW17      30.13R
AKRON CO       PTCLDY    40  32  73 N20       30.25R
BURLINGTON CO  CLEAR     36  32  85 NW9       30.23R
LIMON CO       CLEAR     36  31  82 MISG      30.28R
$$

...UNOFFICIAL OBSERVATIONS...

CITY           SKY/WX    TMP DP  RH WIND       PRES   REMARKS
COLBY KS       CLEAR     43  37  81 W13       30.18S
GOVE KS          N/A     47  32  56 MISG        N/A
NORTON KS      CLEAR     45  30  57 W14       30.09R
SHARON SPRINGS   N/A     42  35  75 NW12G21     N/A
KIT CARSON CO    N/A     40  33  76 MISG        N/A
YUMA CO          N/A     39  33  79 NW18        N/A
$$


USA.gov is the U.S. government's official web portal to all federal, state and local government web resources and services.